{"data":{"norad_id":40333,"intl_designator":"2014-078B","name":"DIRECTV 14","alt_names":[],"object_type":"PAYLOAD","status":"ACTIVE","operator":null,"country":"US","launch_date":"2014-12-06","launch_site_code":"FRGUI","launch_vehicle":null,"mission":null,"orbit_class":"UNKNOWN","rcs_meters":34.1347,"size_class":null,"mass_kg":null,"dimensions":null,"purposes":["comms"],"wikipedia_slug":null,"has_3d_model":false,"image_url":null,"decayed_at":null,"tle_current":{"epoch":"2026-05-24T13:35:01.523904Z","epoch_age_seconds":106396,"freshness":"FRESH","line1":"1 40333U 14078B   26144.56598986 -.00000130  00000+0  00000+0 0  9999","line2":"2 40333   0.0100   1.8500 0000248 205.2209 139.6088  1.00272307 41804","mean_motion":1.00272307,"eccentricity":2.48e-5,"inclination_deg":0.01,"raan_deg":1.85,"arg_perigee_deg":205.2209,"mean_anomaly_deg":139.6088,"bstar":0,"rev_number":4180,"period_min":1436.0894279614,"perigee_km":35785.402944553,"apogee_km":35787.494308,"semimajor_km":42164.585626276,"source":"CELESTRAK","updated_at":"2026-05-25T13:38:14.333438Z"}}}